SDM6993 UUEE-ULAA

Flight info

Callsign SDM6993
Flight time 1h 30m
Altitude 35000
Route N0460F350 RILPO T753 DEGOP T747 TIPNA P988 GITOT P988 RUPAD T825 ABELU
Aircraft A319/M-VGDW/C

Departure

Time 2026-04-26 16:09
Airport Sheremetyevo International Airport (UUEE)

Arrival

Time 2026-04-26 17:39
Airport Talagi Airport (ULAA)
Time Latitude Longitude Altitude Speed Heading
2026-04-26 15:50 55.97920 37.41891 639 ft 0 kts 255°
2026-04-26 15:57 55.97921 37.41893 642 ft 2 kts 255°
2026-04-26 15:58 55.97931 37.41951 640 ft 4 kts 245°
2026-04-26 15:58 55.97945 37.41992 642 ft 4 kts 221°
2026-04-26 15:58 55.97963 37.42008 642 ft 1 kts 165°
2026-04-26 15:58 55.97964 37.42007 642 ft 0 kts 165°
2026-04-26 16:01 55.97963 37.42008 643 ft 1 kts 165°
2026-04-26 16:02 55.97952 37.42013 640 ft 3 kts 165°
2026-04-26 16:02 55.97936 37.42021 647 ft 0 kts 165°
2026-04-26 16:02 55.97931 37.42023 639 ft 2 kts 165°
2026-04-26 16:03 55.97922 37.42028 639 ft 1 kts 165°
2026-04-26 16:03 55.97905 37.42036 641 ft 3 kts 165°
2026-04-26 16:03 55.97891 37.42042 646 ft 2 kts 165°
2026-04-26 16:03 55.97881 37.42047 639 ft 2 kts 165°
2026-04-26 16:04 55.97859 37.42058 639 ft 5 kts 165°
2026-04-26 16:04 55.97816 37.42078 639 ft 8 kts 165°
2026-04-26 16:04 55.97753 37.42109 639 ft 11 kts 165°
2026-04-26 16:04 55.97688 37.42186 639 ft 13 kts 99°
2026-04-26 16:05 55.97713 37.42373 642 ft 18 kts 75°
2026-04-26 16:05 55.97752 37.42631 642 ft 24 kts 75°
2026-04-26 16:05 55.97797 37.42931 642 ft 25 kts 75°
2026-04-26 16:05 55.97841 37.43230 642 ft 25 kts 75°
2026-04-26 16:06 55.97886 37.43523 639 ft 24 kts 75°
2026-04-26 16:06 55.97929 37.43815 639 ft 24 kts 75°
2026-04-26 16:06 55.97928 37.44029 643 ft 14 kts 145°
2026-04-26 16:06 55.97884 37.44053 639 ft 5 kts 165°
2026-04-26 16:07 55.97849 37.44069 640 ft 5 kts 165°
2026-04-26 16:07 55.97815 37.44085 640 ft 6 kts 165°
2026-04-26 16:07 55.97784 37.44037 640 ft 5 kts 256°
2026-04-26 16:07 55.97783 37.44034 640 ft 0 kts 256°
2026-04-26 16:09 55.97777 37.43989 640 ft 21 kts 256°
2026-04-26 16:09 55.97665 37.43241 639 ft 100 kts 255°
2026-04-26 16:09 55.97431 37.41662 647 ft 160 kts 255°
2026-04-26 16:09 55.97136 37.39716 1251 ft 160 kts 258°
2026-04-26 16:10 55.96817 37.37791 1915 ft 166 kts 251°
2026-04-26 16:10 55.96183 37.35995 2554 ft 173 kts 239°
2026-04-26 16:10 55.95488 37.34237 3264 ft 173 kts 239°
2026-04-26 16:10 55.94787 37.32479 3914 ft 178 kts 239°
2026-04-26 16:11 55.94024 37.30542 4286 ft 202 kts 239°
2026-04-26 16:11 55.93185 37.28400 4683 ft 225 kts 238°
2026-04-26 16:11 55.92261 37.26038 5389 ft 236 kts 237°
2026-04-26 16:11 55.91312 37.23617 6229 ft 240 kts 237°
2026-04-26 16:12 55.90278 37.21256 7110 ft 244 kts 221°
2026-04-26 16:12 55.88751 37.20040 8017 ft 244 kts 184°
2026-04-26 16:12 55.85590 37.22504 9527 ft 263 kts 142°
2026-04-26 16:13 55.84305 37.24841 10350 ft 271 kts 122°
2026-04-26 16:13 55.83854 37.28124 11124 ft 285 kts 90°
2026-04-26 16:13 55.84470 37.31586 11697 ft 306 kts 62°
2026-04-26 16:13 55.85699 37.34744 12461 ft 314 kts 54°
2026-04-26 16:14 55.87113 37.37764 13225 ft 321 kts 51°
2026-04-26 16:14 55.88611 37.40771 13916 ft 327 kts 50°
2026-04-26 16:14 55.91653 37.46944 15322 ft 336 kts 51°
2026-04-26 16:15 55.93170 37.50148 16028 ft 340 kts 52°
2026-04-26 16:15 55.94775 37.53292 16717 ft 346 kts 44°
2026-04-26 16:15 55.96540 37.56253 17424 ft 351 kts 44°
2026-04-26 16:16 56.00147 37.62311 18626 ft 361 kts 44°
2026-04-26 16:16 56.01962 37.65369 19201 ft 366 kts 44°
2026-04-26 16:16 56.03829 37.68515 19773 ft 372 kts 44°
2026-04-26 16:16 56.05723 37.71718 20342 ft 377 kts 44°
2026-04-26 16:17 56.07638 37.74965 20913 ft 382 kts 44°
2026-04-26 16:17 56.09579 37.78275 21478 ft 387 kts 45°
2026-04-26 16:17 56.11543 37.81625 22032 ft 393 kts 40°
2026-04-26 16:17 56.13760 37.84507 22580 ft 397 kts 28°
2026-04-26 16:18 56.16262 37.86638 22967 ft 403 kts 16°
2026-04-26 16:18 56.21926 37.88259 23282 ft 424 kts 359°
2026-04-26 16:19 56.27890 37.89079 24147 ft 434 kts 360°
2026-04-26 16:19 56.30913 37.89507 24611 ft 437 kts 360°
2026-04-26 16:19 56.35992 37.90201 25366 ft 443 kts 359°
2026-04-26 16:20 56.40120 37.90747 25978 ft 447 kts 359°
2026-04-26 16:20 56.46373 37.91574 26858 ft 454 kts 359°
2026-04-26 16:20 56.49531 37.91994 27295 ft 457 kts 359°
2026-04-26 16:21 56.52708 37.92424 27737 ft 460 kts 359°
2026-04-26 16:21 56.55911 37.92864 28173 ft 463 kts 360°
2026-04-26 16:21 56.59134 37.93312 28586 ft 466 kts 359°
2026-04-26 16:21 56.62378 37.93823 28994 ft 471 kts
2026-04-26 16:22 56.65609 37.95051 29407 ft 479 kts 13°
2026-04-26 16:22 56.68750 37.97184 29746 ft 485 kts 23°
2026-04-26 16:22 56.71706 38.00189 30107 ft 489 kts 33°
2026-04-26 16:22 56.74392 38.04002 30469 ft 490 kts 43°
2026-04-26 16:23 56.76836 38.08334 30842 ft 491 kts 45°
2026-04-26 16:23 56.79275 38.12716 31229 ft 491 kts 45°
2026-04-26 16:23 56.81698 38.17081 31733 ft 488 kts 45°
2026-04-26 16:23 56.84107 38.21430 32242 ft 485 kts 44°
2026-04-26 16:24 56.86500 38.25755 32765 ft 482 kts 44°
2026-04-26 16:24 56.88915 38.29982 33264 ft 480 kts 42°
2026-04-26 16:24 56.91398 38.34019 33694 ft 477 kts 40°
2026-04-26 16:24 56.93777 38.37695 34022 ft 476 kts 39°
2026-04-26 16:25 56.96328 38.41539 34351 ft 474 kts 38°
2026-04-26 16:25 56.98878 38.45376 34667 ft 474 kts 38°
2026-04-26 16:25 57.01407 38.49230 34963 ft 473 kts 39°
2026-04-26 16:25 57.03917 38.53127 35256 ft 472 kts 39°
2026-04-26 16:26 57.06406 38.57056 35549 ft 472 kts 40°
2026-04-26 16:26 57.08047 38.59667 35741 ft 471 kts 40°
2026-04-26 16:26 57.11361 38.64963 36106 ft 471 kts 40°
2026-04-26 16:26 57.13833 38.68908 36338 ft 471 kts 40°
2026-04-26 16:27 57.18798 38.76822 36421 ft 477 kts 40°
2026-04-26 16:27 57.23876 38.84943 36424 ft 488 kts 40°
2026-04-26 16:28 57.29052 38.93244 36423 ft 497 kts 40°
2026-04-26 16:28 57.34261 39.01617 36416 ft 499 kts 40°
2026-04-26 16:29 57.38605 39.08639 36422 ft 499 kts 40°
2026-04-26 16:29 57.43829 39.17129 36418 ft 499 kts 40°
2026-04-26 16:30 57.49046 39.25639 36427 ft 499 kts 40°
2026-04-26 16:30 57.54274 39.34158 36431 ft 500 kts 40°
2026-04-26 16:31 57.59504 39.42684 36440 ft 500 kts 40°
2026-04-26 16:31 57.64733 39.51254 36442 ft 499 kts 40°
2026-04-26 16:32 57.69038 39.58352 36440 ft 499 kts 40°
2026-04-26 16:32 57.75119 39.68406 36444 ft 499 kts 40°
2026-04-26 16:33 57.79813 39.75985 36435 ft 495 kts 35°
2026-04-26 16:33 57.84899 39.80394 36441 ft 484 kts 16°
2026-04-26 16:34 57.87883 39.83015 36321 ft 491 kts 37°
2026-04-26 16:34 57.90399 39.87349 36408 ft 492 kts 42°
2026-04-26 16:34 57.93149 39.91141 36432 ft 491 kts 23°
2026-04-26 16:34 57.95874 39.92912 36444 ft 485 kts 13°
2026-04-26 16:35 58.01983 39.94535 36528 ft 468 kts 341°
2026-04-26 16:35 58.04933 39.92184 36838 ft 458 kts 327°
2026-04-26 16:35 58.07717 39.89195 36827 ft 462 kts 327°
2026-04-26 16:36 58.09610 39.87156 36563 ft 464 kts 327°
2026-04-26 16:36 58.13336 39.83140 36431 ft 467 kts 327°
2026-04-26 16:36 58.19073 39.77247 36439 ft 473 kts 336°
2026-04-26 16:37 58.24453 39.74723 36445 ft 478 kts 346°
2026-04-26 16:37 58.30979 39.72266 36442 ft 478 kts 346°
2026-04-26 16:38 58.37503 39.69791 36444 ft 478 kts 346°
2026-04-26 16:38 58.44022 39.67303 36448 ft 478 kts 346°
2026-04-26 16:39 58.50541 39.64803 36458 ft 478 kts 346°
2026-04-26 16:39 58.57066 39.62290 36457 ft 478 kts 346°
2026-04-26 16:40 58.63586 39.59780 36462 ft 478 kts 346°
2026-04-26 16:40 58.70102 39.57253 36465 ft 478 kts 345°
2026-04-26 16:41 58.76693 39.55435 36466 ft 480 kts 352°
2026-04-26 16:41 58.83354 39.54308 36463 ft 480 kts 352°
2026-04-26 16:42 58.90011 39.53199 36467 ft 480 kts 352°
2026-04-26 16:42 58.96664 39.52105 36466 ft 480 kts 352°
2026-04-26 16:43 59.03318 39.51006 36468 ft 480 kts 352°
2026-04-26 16:43 59.09970 39.49895 36472 ft 479 kts 352°
2026-04-26 16:44 59.16613 39.48781 36473 ft 479 kts 352°
2026-04-26 16:44 59.23257 39.47667 36469 ft 479 kts 352°
2026-04-26 16:45 59.29905 39.46551 36470 ft 479 kts 352°
2026-04-26 16:45 59.36546 39.45448 36472 ft 479 kts 352°
2026-04-26 16:46 59.43603 39.44262 36469 ft 479 kts 352°
2026-04-26 16:46 59.49828 39.43199 36467 ft 479 kts 352°
2026-04-26 16:47 59.56468 39.42071 36472 ft 479 kts 352°
2026-04-26 16:47 59.63106 39.40944 36471 ft 479 kts 352°
2026-04-26 16:48 59.69747 39.39803 36478 ft 479 kts 352°
2026-04-26 16:48 59.76380 39.38655 36475 ft 479 kts 352°
2026-04-26 16:49 59.83026 39.37457 36482 ft 479 kts 351°
2026-04-26 16:49 59.89634 39.35931 36478 ft 478 kts 350°
2026-04-26 16:50 59.96232 39.34251 36480 ft 478 kts 349°
2026-04-26 16:50 60.02832 39.32615 36485 ft 478 kts 350°
2026-04-26 16:51 60.09433 39.31048 36482 ft 478 kts 350°
2026-04-26 16:51 60.16038 39.29478 36484 ft 478 kts 350°
2026-04-26 16:52 60.21527 39.28152 36485 ft 478 kts 350°
2026-04-26 16:52 60.29228 39.26113 36479 ft 477 kts 349°
2026-04-26 16:53 60.35764 39.24290 36486 ft 477 kts 349°
2026-04-26 16:53 60.42390 39.22461 36491 ft 477 kts 349°
2026-04-26 16:54 60.48936 39.20701 36491 ft 477 kts 349°
2026-04-26 16:54 60.55516 39.18910 36497 ft 477 kts 349°
2026-04-26 16:55 60.62102 39.17102 36497 ft 477 kts 349°
2026-04-26 16:55 60.68680 39.15295 36498 ft 477 kts 349°
2026-04-26 16:56 60.78557 39.12560 36503 ft 477 kts 349°
2026-04-26 16:57 60.85133 39.10727 36506 ft 477 kts 349°
2026-04-26 16:57 60.95001 39.07979 36506 ft 477 kts 349°
2026-04-26 16:58 61.00506 39.06425 36510 ft 477 kts 349°
2026-04-26 16:59 61.11436 39.03342 36514 ft 477 kts 349°
2026-04-26 17:00 61.24586 38.99598 36513 ft 477 kts 349°
2026-04-26 17:00 61.31220 38.99185 36517 ft 483 kts
2026-04-26 17:00 61.34530 39.00440 36514 ft 484 kts
2026-04-26 17:01 61.41143 39.03081 36514 ft 484 kts
2026-04-26 17:01 61.47760 39.05745 36509 ft 484 kts
2026-04-26 17:02 61.54332 39.08379 36516 ft 484 kts
2026-04-26 17:02 61.60952 39.11046 36531 ft 485 kts
2026-04-26 17:03 61.67577 39.13733 36535 ft 485 kts
2026-04-26 17:03 61.74200 39.16417 36535 ft 485 kts
2026-04-26 17:04 61.80827 39.19118 36541 ft 485 kts
2026-04-26 17:04 61.87453 39.21840 36536 ft 485 kts
2026-04-26 17:05 61.94069 39.24650 36543 ft 485 kts
2026-04-26 17:05 62.00665 39.27680 36546 ft 485 kts 10°
2026-04-26 17:06 62.07263 39.30764 36554 ft 485 kts
2026-04-26 17:06 62.13865 39.33797 36558 ft 485 kts
2026-04-26 17:07 62.20462 39.36826 36564 ft 485 kts
2026-04-26 17:07 62.27059 39.39852 36566 ft 485 kts
2026-04-26 17:08 62.33653 39.42897 36569 ft 485 kts
2026-04-26 17:08 62.40264 39.45948 36575 ft 485 kts
2026-04-26 17:09 62.45790 39.48512 36580 ft 485 kts
2026-04-26 17:09 62.50153 39.50558 36460 ft 480 kts
2026-04-26 17:09 62.53371 39.52088 36258 ft 468 kts
2026-04-26 17:10 62.56525 39.53594 36008 ft 460 kts
2026-04-26 17:10 62.59636 39.55073 35771 ft 456 kts
2026-04-26 17:10 62.62726 39.56539 35532 ft 453 kts
2026-04-26 17:10 62.65797 39.57996 35299 ft 450 kts
2026-04-26 17:11 62.68846 39.59440 35067 ft 448 kts
2026-04-26 17:11 62.71878 39.60877 34837 ft 446 kts
2026-04-26 17:11 62.74951 39.62331 34617 ft 456 kts
2026-04-26 17:11 62.78069 39.63810 34396 ft 461 kts
2026-04-26 17:12 62.84363 39.66815 33958 ft 463 kts
2026-04-26 17:12 62.87512 39.68327 33731 ft 463 kts
2026-04-26 17:13 62.93811 39.71362 33231 ft 464 kts
2026-04-26 17:13 62.96963 39.72899 32961 ft 464 kts
2026-04-26 17:13 63.03192 39.75949 32425 ft 448 kts
2026-04-26 17:14 63.06199 39.77421 32182 ft 437 kts
2026-04-26 17:14 63.12033 39.80264 31235 ft 429 kts
2026-04-26 17:14 63.14928 39.81671 30756 ft 425 kts
2026-04-26 17:15 63.20669 39.84477 29811 ft 419 kts
2026-04-26 17:15 63.23503 39.85873 29282 ft 415 kts
2026-04-26 17:15 63.26300 39.87267 28843 ft 409 kts
2026-04-26 17:16 63.29053 39.88651 28416 ft 404 kts
2026-04-26 17:16 63.31780 39.90018 27991 ft 399 kts
2026-04-26 17:16 63.34475 39.91359 27571 ft 395 kts
2026-04-26 17:16 63.37141 39.92679 27146 ft 391 kts
2026-04-26 17:17 63.39787 39.93986 26716 ft 388 kts
2026-04-26 17:17 63.42411 39.95290 26301 ft 385 kts
2026-04-26 17:17 63.45008 39.96671 25868 ft 384 kts 13°
2026-04-26 17:17 63.47533 39.98560 25445 ft 381 kts 14°
2026-04-26 17:18 63.50036 40.00462 25001 ft 379 kts 14°
2026-04-26 17:18 63.52527 40.02356 24575 ft 376 kts 14°
2026-04-26 17:18 63.54998 40.04224 24128 ft 374 kts 14°
2026-04-26 17:18 63.57453 40.06084 23674 ft 372 kts 14°
2026-04-26 17:19 63.62324 40.09794 22741 ft 367 kts 13°
2026-04-26 17:19 63.64726 40.11630 22301 ft 362 kts 13°
2026-04-26 17:19 63.67088 40.13443 21879 ft 358 kts 14°
2026-04-26 17:20 63.69443 40.15252 21459 ft 354 kts 14°
2026-04-26 17:20 63.70204 40.15811 21323 ft 352 kts 11°
2026-04-26 17:20 63.73362 40.16962 20796 ft 339 kts 356°
2026-04-26 17:20 63.75678 40.16634 20396 ft 330 kts 346°
2026-04-26 17:21 63.77885 40.15463 20022 ft 323 kts 340°
2026-04-26 17:21 63.80042 40.14143 19649 ft 320 kts 340°
2026-04-26 17:21 63.82183 40.12842 19284 ft 317 kts 340°
2026-04-26 17:21 63.84308 40.11550 18909 ft 315 kts 340°
2026-04-26 17:22 63.86412 40.10261 18554 ft 313 kts 340°
2026-04-26 17:22 63.88508 40.08973 18195 ft 311 kts 341°
2026-04-26 17:22 63.90591 40.07691 17819 ft 309 kts 341°
2026-04-26 17:22 63.92665 40.06412 17432 ft 307 kts 341°
2026-04-26 17:23 63.94715 40.05147 17094 ft 304 kts 341°
2026-04-26 17:23 63.96748 40.03890 16747 ft 302 kts 341°
2026-04-26 17:23 63.98814 40.02608 16412 ft 328 kts 341°
2026-04-26 17:23 64.01133 40.01147 16011 ft 353 kts 342°
2026-04-26 17:24 64.03531 39.99641 15610 ft 361 kts 342°
2026-04-26 17:24 64.05963 39.98130 15206 ft 363 kts 342°
2026-04-26 17:24 64.08405 39.96613 14934 ft 364 kts 342°
2026-04-26 17:24 64.10801 39.95129 14720 ft 346 kts 342°
2026-04-26 17:25 64.13053 39.93740 14484 ft 326 kts 342°
2026-04-26 17:25 64.15215 39.92393 13992 ft 317 kts 342°
2026-04-26 17:25 64.17326 39.91063 13621 ft 314 kts 342°
2026-04-26 17:25 64.19421 39.89734 13222 ft 311 kts 342°
2026-04-26 17:26 64.21494 39.88415 12865 ft 308 kts 343°
2026-04-26 17:26 64.23551 39.87110 12511 ft 305 kts 343°
2026-04-26 17:26 64.25582 39.85820 12148 ft 301 kts 343°
2026-04-26 17:26 64.27592 39.84545 11798 ft 298 kts 343°
2026-04-26 17:27 64.29586 39.83277 11441 ft 296 kts 343°
2026-04-26 17:27 64.31561 39.82024 11080 ft 293 kts 343°
2026-04-26 17:27 64.33524 39.80782 10727 ft 291 kts 343°
2026-04-26 17:27 64.35467 39.79543 10357 ft 289 kts 343°
2026-04-26 17:28 64.37402 39.78305 9995 ft 287 kts 343°
2026-04-26 17:28 64.39321 39.77072 9631 ft 286 kts 343°
2026-04-26 17:28 64.41242 39.75931 9229 ft 284 kts 349°
2026-04-26 17:28 64.43208 39.75685 8855 ft 283 kts
2026-04-26 17:29 64.45123 39.76582 8472 ft 281 kts 19°
2026-04-26 17:29 64.46300 39.77807 8208 ft 280 kts 28°
2026-04-26 17:29 64.48563 39.80748 7686 ft 277 kts 29°
2026-04-26 17:29 64.50236 39.82921 7273 ft 275 kts 29°
2026-04-26 17:30 64.51904 39.85084 6876 ft 274 kts 29°
2026-04-26 17:30 64.53558 39.87232 6473 ft 272 kts 28°
2026-04-26 17:30 64.55207 39.89380 6055 ft 271 kts 29°
2026-04-26 17:30 64.56843 39.91521 5633 ft 269 kts 29°
2026-04-26 17:31 64.58467 39.93651 5218 ft 267 kts 29°
2026-04-26 17:31 64.58990 39.94338 5080 ft 264 kts 29°
2026-04-26 17:31 64.61431 39.98137 4620 ft 237 kts 47°
2026-04-26 17:31 64.62359 40.01156 4566 ft 224 kts 63°
2026-04-26 17:32 64.62866 40.04477 4467 ft 213 kts 79°
2026-04-26 17:32 64.62972 40.07804 4415 ft 199 kts 94°
2026-04-26 17:32 64.62839 40.10927 4289 ft 188 kts 97°
2026-04-26 17:32 64.62711 40.13858 4199 ft 176 kts 97°
2026-04-26 17:33 64.62589 40.16607 4129 ft 165 kts 97°
2026-04-26 17:33 64.62474 40.19173 4061 ft 153 kts 97°
2026-04-26 17:33 64.62368 40.21549 3986 ft 148 kts 97°
2026-04-26 17:34 64.62162 40.26094 3847 ft 136 kts 97°
2026-04-26 17:34 64.62063 40.28285 3723 ft 135 kts 96°
2026-04-26 17:34 64.61964 40.30459 3563 ft 135 kts 96°
2026-04-26 17:34 64.61865 40.32625 3380 ft 134 kts 96°
2026-04-26 17:35 64.61766 40.34774 3199 ft 133 kts 95°
2026-04-26 17:35 64.61668 40.36908 3021 ft 132 kts 95°
2026-04-26 17:35 64.61574 40.38948 2838 ft 131 kts 95°
2026-04-26 17:35 64.61476 40.41059 2650 ft 130 kts 95°
2026-04-26 17:36 64.61380 40.43141 2468 ft 129 kts 94°
2026-04-26 17:36 64.61283 40.45219 2287 ft 129 kts 94°
2026-04-26 17:36 64.61187 40.47281 2104 ft 128 kts 94°
2026-04-26 17:36 64.61090 40.49343 1920 ft 127 kts 94°
2026-04-26 17:37 64.60994 40.51376 1742 ft 126 kts 94°
2026-04-26 17:37 64.60899 40.53398 1569 ft 125 kts 94°
2026-04-26 17:37 64.60804 40.55400 1383 ft 124 kts 94°
2026-04-26 17:38 64.60615 40.59386 985 ft 124 kts 94°
2026-04-26 17:38 64.60520 40.61381 772 ft 124 kts 94°
2026-04-26 17:38 64.60421 40.63379 586 ft 124 kts 95°
2026-04-26 17:38 64.60331 40.65382 399 ft 124 kts 95°
2026-04-26 17:39 64.60236 40.67389 224 ft 125 kts 96°
2026-04-26 17:39 64.60140 40.69402 82 ft 125 kts 96°
2026-04-26 17:39 64.60052 40.71244 51 ft 98 kts 96°
2026-04-26 17:39 64.59995 40.72420 52 ft 49 kts 97°
2026-04-26 17:40 64.59974 40.72854 56 ft 17 kts 97°
2026-04-26 17:40 64.59963 40.73062 57 ft 23 kts 96°
2026-04-26 17:40 64.59930 40.73701 55 ft 36 kts 97°
2026-04-26 17:40 64.59891 40.74206 56 ft 21 kts 138°
2026-04-26 17:41 64.59770 40.74199 54 ft 10 kts 186°
2026-04-26 17:41 64.59766 40.74198 52 ft 1 kts 186°
2026-04-26 17:41 64.59739 40.74190 52 ft 7 kts 186°
2026-04-26 17:41 64.59694 40.74126 58 ft 10 kts 260°
2026-04-26 17:42 64.59698 40.73918 57 ft 16 kts 274°
2026-04-26 17:42 64.59719 40.73626 56 ft 21 kts 278°
2026-04-26 17:42 64.59738 40.73234 55 ft 29 kts 277°
2026-04-26 17:42 64.59766 40.72701 54 ft 37 kts 276°
2026-04-26 17:43 64.59794 40.72131 52 ft 32 kts 277°
2026-04-26 17:43 64.59795 40.71755 49 ft 14 kts 222°
2026-04-26 17:43 64.59709 40.71691 51 ft 13 kts 246°
2026-04-26 17:43 64.59713 40.71529 50 ft 8 kts 249°
2026-04-26 17:44 64.59674 40.71514 50 ft 2 kts 191°
2026-04-26 17:44 64.59669 40.71511 50 ft 1 kts 194°